This is the latest recevied weather packets stored in our database for station/object N3MFL. If no packets are shown the sender has not sent any weather packets the latest 10 day(s).
| Time | Temp. | Humidity | Pressure | Rain* | Wind** | Luminosity | Snow |
|---|---|---|---|---|---|---|---|
| 1777722547 | 10° C | 77% | 1013.4 hPa | 0 mm | - | 125 W/m² | - |
| 1777721941 | 10.56° C | 76% | 1013.2 hPa | 0 mm | - | 166 W/m² | - |
| 1777721639 | 10° C | 78% | 1013 hPa | 0 mm | - | 169 W/m² | - |
| 1777721337 | 9.44° C | 78% | 1013 hPa | 0 mm | - | 115 W/m² | - |
| 1777721034 | 8.89° C | 79% | 1013.1 hPa | 0 mm | - | 79 W/m² | - |
| 1777720731 | 8.89° C | 79% | 1013.2 hPa | 0 mm | - | 37 W/m² | - |
| 1777720429 | 8.89° C | 79% | 1013.1 hPa | 0 mm | - | 32 W/m² | - |
| 1777720126 | 8.89° C | 79% | 1013.4 hPa | 0 mm | - | 34 W/m² | - |
| 1777719824 | 8.89° C | 79% | 1013.2 hPa | 0 mm | - | 50 W/m² | - |
| 1777719521 | 8.89° C | 80% | 1013.2 hPa | 0 mm | - | 41 W/m² | - |
| 1777719218 | 8.89° C | 80% | 1013.1 hPa | 0 mm | - | 38 W/m² | - |
| 1777718916 | 8.89° C | 80% | 1013 hPa | 0 mm | - | 18 W/m² | - |
| 1777718613 | 8.89° C | 80% | 1013 hPa | 0 mm | - | 19 W/m² | - |
| 1777718310 | 8.89° C | 80% | 1012.9 hPa | 0 mm | - | 26 W/m² | - |
| 1777718007 | 8.89° C | 80% | 1012.9 hPa | 0 mm | - | 19 W/m² | - |
| 1777717705 | 8.89° C | 80% | 1012.7 hPa | 0 mm | - | 16 W/m² | - |
| 1777717401 | 8.33° C | 80% | 1012.8 hPa | 0 mm | - | 16 W/m² | - |
| 1777717099 | 8.33° C | 80% | 1012.6 hPa | 0 mm | - | 16 W/m² | - |
| 1777716797 | 8.33° C | 81% | 1012.8 hPa | 0 mm | - | 13 W/m² | - |
| 1777716495 | 7.78° C | 81% | 1012.9 hPa | 0 mm | - | 7 W/m² | - |
| 1777716194 | 7.78° C | 83% | 1012.9 hPa | 0 mm | - | 7 W/m² | - |
| 1777715891 | 7.78° C | 83% | 1012.9 hPa | 0 mm | - | 10 W/m² | - |
| 1777715588 | 7.78° C | 83% | 1012.6 hPa | 0 mm | - | 6 W/m² | - |
| 1777715286 | 7.78° C | 84% | 1012.6 hPa | 0 mm | - | 4 W/m² | - |
| 1777714681 | 7.78° C | 82% | 1012.6 hPa | 0 mm | - | 2 W/m² | - |
* Rain latest hour (hover to see other rain measurements)
** Current wind speed in m/s (hover to see current wind gust speed)